When you browse on this site, cookies collect data to enhance your experience and personalize the content and advertising you see.
Visit our Privacy Policy to learn more. By continuing to use the site, you agree to this use of cookies and data.
  • In Latvia
  • List of Countries
  • For 7 days
  • Water Temperature
  • Weather Map
  • Weather Widgets
  • user-avatar
    Login

    Hourly Weather Top

    Today, 22 January, Wednesday

    Time Temperature Precipitation Wind Pressure Humidity
    00:00 +18°C° 0 mm 1 mps 686 mmHg 91%
    01:00 +18°C° 0 mm 1 mps 686 mmHg 92%
    02:00 +18°C° 0 mm 1 mps 685 mmHg 92%
    03:00 +16°C° 0 mm 1 mps 685 mmHg 93%
    04:00 +16°C° 0 mm 1 mps 685 mmHg 93%
    05:00 +16°C° 0 mm 1 mps 685 mmHg 92%
    06:00 +18°C° 0 mm 1 mps 685 mmHg 90%
    07:00 +18°C° 0 mm 1 mps 686 mmHg 89%
    08:00 +22°C° 0 mm 1 mps 687 mmHg 74%
    09:00 +26°C° 0 mm 1 mps 688 mmHg 59%
    10:00 +30°C° 0 mm 1 mps 689 mmHg 44%
    11:00 +31°C° 0 mm 1 mps 688 mmHg 40%
    12:00 +32°C° 0 mm 1 mps 687 mmHg 35%
    13:00 +34°C° 0 mm 2 mps 686 mmHg 31%
    14:00 +32°C° 0 mm 1 mps 686 mmHg 33%
    15:00 +32°C° 0 mm 1 mps 686 mmHg 34%
    16:00 +31°C° 0 mm 1 mps 685 mmHg 35%
    17:00 +28°C° 0 mm 1 mps 685 mmHg 47%
    18:00 +25°C° 0 mm 1 mps 685 mmHg 58%
    19:00 +22°C° 0 mm 1 mps 684 mmHg 69%
    20:00 +21°C° 0 mm 1 mps 684 mmHg 72%
    21:00 +21°C° 0 mm 1 mps 685 mmHg 75%
    22:00 +20°C° 0 mm 1 mps 685 mmHg 78%
    23:00 +20°C° 0 mm 1 mps 685 mmHg 77%

    Tomorrow, 23 January, Thursday

    Time Temperature Precipitation Wind Pressure Humidity
    00:00 +20°C° 0 mm 1 mps 684 mmHg 75%
    01:00 +19°C° 0 mm 1 mps 684 mmHg 74%
    02:00 +19°C° 0 mm 1 mps 684 mmHg 74%
    03:00 +19°C° 0 mm 1 mps 684 mmHg 74%
    04:00 +19°C° 0 mm 1 mps 683 mmHg 75%
    05:00 +19°C° 0 mm 1 mps 684 mmHg 75%
    06:00 +20°C° 0 mm 1 mps 684 mmHg 74%
    07:00 +20°C° 0 mm 1 mps 684 mmHg 74%
    08:00 +23°C° 0 mm 1 mps 685 mmHg 63%
    09:00 +27°C° 0 mm 1 mps 686 mmHg 51%
    10:00 +30°C° 0 mm 1 mps 687 mmHg 39%
    11:00 +31°C° 0 mm 1 mps 686 mmHg 36%
    12:00 +32°C° 0 mm 1 mps 686 mmHg 33%
    13:00 +34°C° 0 mm 2 mps 685 mmHg 30%
    14:00 +32°C° 0 mm 1 mps 685 mmHg 31%
    15:00 +32°C° 0 mm 1 mps 684 mmHg 32%
    16:00 +31°C° 0 mm 1 mps 684 mmHg 34%
    17:00 +28°C° 0 mm 1 mps 684 mmHg 44%
    18:00 +26°C° 0 mm 1 mps 683 mmHg 54%
    19:00 +23°C° 0 mm 1 mps 683 mmHg 64%
    20:00 +22°C° 0 mm 1 mps 683 mmHg 67%
    21:00 +21°C° 0 mm 1 mps 684 mmHg 70%
    22:00 +20°C° 0 mm 1 mps 684 mmHg 73%
    23:00 +20°C° 0 mm 1 mps 684 mmHg 72%

    Day after tomorrow, 24 January, Friday

    Time Temperature Precipitation Wind Pressure Humidity
    00:00 +19°C° 0 mm 1 mps 684 mmHg 71%
    01:00 +19°C° 0 mm 1 mps 684 mmHg 70%
    02:00 +19°C° 0 mm 1 mps 683 mmHg 70%
    03:00 +19°C° 0 mm 1 mps 683 mmHg 70%
    04:00 +19°C° 0 mm 1 mps 683 mmHg 70%
    05:00 +19°C° 0 mm 1 mps 683 mmHg 69%
    06:00 +19°C° 0 mm 1 mps 684 mmHg 69%
    07:00 +19°C° 0 mm 1 mps 685 mmHg 69%
    08:00 +23°C° 0 mm 1 mps 685 mmHg 58%
    09:00 +26°C° 0 mm 1 mps 686 mmHg 48%
    10:00 +30°C° 0 mm 1 mps 687 mmHg 37%
    11:00 +31°C° 0 mm 1 mps 686 mmHg 34%
    12:00 +32°C° 0 mm 1 mps 686 mmHg 30%
    13:00 +34°C° 0 mm 2 mps 685 mmHg 27%
    14:00 +32°C° 0 mm 2 mps 684 mmHg 28%
    15:00 +31°C° 0 mm 1 mps 684 mmHg 29%
    16:00 +31°C° 0 mm 1 mps 683 mmHg 30%
    17:00 +28°C° 0 mm 1 mps 683 mmHg 39%
    18:00 +25°C° 0 mm 1 mps 683 mmHg 48%
    19:00 +22°C° 0 mm 1 mps 682 mmHg 57%
    20:00 +21°C° 0 mm 1 mps 683 mmHg 61%
    21:00 +21°C° 0 mm 1 mps 683 mmHg 64%
    22:00 +20°C° 0 mm 1 mps 683 mmHg 67%
    23:00 +19°C° 0 mm 1 mps 683 mmHg 67%

    25 January, Saturday

    Time Temperature Precipitation Wind Pressure Humidity
    00:00 +19°C° 0 mm 1 mps 683 mmHg 67%
    01:00 +19°C° 0 mm 1 mps 682 mmHg 67%
    02:00 +19°C° 0 mm 1 mps 682 mmHg 68%
    03:00 +19°C° 0 mm 1 mps 682 mmHg 69%
    04:00 +18°C° 0 mm 1 mps 682 mmHg 70%
    05:00 +19°C° 0 mm 1 mps 682 mmHg 70%
    06:00 +17°C° 0 mm 0 mps 683 mmHg 70%
    07:00 +17°C° 0 mm 0 mps 683 mmHg 69%
    08:00 +22°C° 0 mm 1 mps 684 mmHg 59%
    09:00 +25°C° 0 mm 1 mps 685 mmHg 49%
    10:00 +28°C° 0 mm 1 mps 686 mmHg 38%
    11:00 +29°C° 0 mm 2 mps 685 mmHg 36%
    12:00 +30°C° 0 mm 2 mps 684 mmHg 33%
    13:00 +31°C° 0 mm 2 mps 684 mmHg 31%
    14:00 +31°C° 0 mm 2 mps 683 mmHg 31%
    15:00 +30°C° 0 mm 2 mps 683 mmHg 31%
    16:00 +30°C° 0 mm 1 mps 682 mmHg 31%
    17:00 +27°C° 0 mm 1 mps 682 mmHg 39%
    18:00 +25°C° 0 mm 1 mps 682 mmHg 48%
    19:00 +20°C° 0 mm 0 mps 681 mmHg 56%
    20:00 +21°C° 0 mm 1 mps 682 mmHg 58%
    21:00 +21°C° 0 mm 1 mps 682 mmHg 61%
    22:00 +20°C° 0 mm 1 mps 682 mmHg 64%
    23:00 +20°C° 0 mm 1 mps 682 mmHg 65%

    26 January, Sunday

    Time Temperature Precipitation Wind Pressure Humidity
    00:00 +20°C° 0 mm 1 mps 682 mmHg 67%
    01:00 +20°C° 0 mm 1 mps 682 mmHg 69%
    02:00 +19°C° 0 mm 1 mps 682 mmHg 70%
    03:00 +17°C° 0 mm 0 mps 681 mmHg 71%
    04:00 +17°C° 0 mm 0 mps 681 mmHg 72%
    05:00 +17°C° 0 mm 0 mps 682 mmHg 73%
    06:00 +17°C° 0 mm 0 mps 682 mmHg 73%
    07:00 +17°C° 0 mm 0 mps 682 mmHg 74%
    08:00 +21°C° 0 mm 1 mps 683 mmHg 67%
    09:00 +24°C° 0 mm 1 mps 684 mmHg 59%
    10:00 +26°C° 0 mm 1 mps 685 mmHg 52%
    11:00 +27°C° 0 mm 1 mps 684 mmHg 50%
    12:00 +28°C° 0 mm 1 mps 684 mmHg 49%
    13:00 +28°C° 0 mm 1 mps 683 mmHg 48%
    14:00 +28°C° 0.1 mm 1 mps 683 mmHg 52%
    15:00 +27°C° 0.1 mm 1 mps 683 mmHg 56%
    16:00 +24°C° 0.1 mm 0 mps 682 mmHg 60%
    17:00 +24°C° 0.3 mm 1 mps 682 mmHg 69%
    18:00 +22°C° 0.3 mm 1 mps 682 mmHg 79%
    19:00 +20°C° 0.3 mm 1 mps 682 mmHg 89%
    20:00 +20°C° 0.2 mm 1 mps 682 mmHg 91%
    21:00 +19°C° 0.2 mm 1 mps 683 mmHg 93%
    22:00 +19°C° 0.2 mm 1 mps 683 mmHg 94%
    23:00 +19°C° 0.1 mm 1 mps 683 mmHg 95%

    27 January, Monday

    Time Temperature Precipitation Wind Pressure Humidity
    00:00 +18°C° 0.1 mm 1 mps 682 mmHg 95%
    01:00 +18°C° 0.1 mm 1 mps 682 mmHg 95%
    02:00 +18°C° 0 mm 1 mps 682 mmHg 95%
    03:00 +18°C° 0 mm 1 mps 682 mmHg 96%
    04:00 +18°C° 0 mm 1 mps 682 mmHg 96%
    05:00 +18°C° 0 mm 1 mps 682 mmHg 96%
    06:00 +18°C° 0 mm 1 mps 682 mmHg 96%
    07:00 +18°C° 0 mm 1 mps 683 mmHg 96%
    08:00 +20°C° 0.1 mm 1 mps 683 mmHg 87%
    09:00 +22°C° 0.1 mm 1 mps 684 mmHg 78%
    10:00 +24°C° 0.1 mm 1 mps 685 mmHg 68%
    11:00 +24°C° 0.7 mm 1 mps 684 mmHg 71%
    12:00 +22°C° 0.7 mm 0 mps 683 mmHg 73%
    13:00 +23°C° 0.7 mm 0 mps 683 mmHg 75%
    14:00 +25°C° 0.4 mm 1 mps 682 mmHg 73%
    15:00 +25°C° 0.4 mm 1 mps 682 mmHg 70%
    16:00 +26°C° 0.4 mm 1 mps 682 mmHg 68%
    17:00 +24°C° 0.3 mm 1 mps 682 mmHg 76%
    18:00 +22°C° 0.3 mm 1 mps 682 mmHg 84%
    19:00 +20°C° 0.3 mm 1 mps 682 mmHg 92%
    20:00 +19°C° 0.1 mm 1 mps 682 mmHg 93%
    21:00 +19°C° 0.1 mm 1 mps 682 mmHg 94%
    22:00 +19°C° 0.1 mm 1 mps 683 mmHg 95%
    23:00 +18°C° 0.1 mm 1 mps 682 mmHg 96%
    Show more